This is the latest recevied weather packets stored in our database for station/object K5BOU. If no packets are shown the sender has not sent any weather packets the latest 10 day(s).
| Time | Temp. | Humidity | Pressure | Rain* | Wind** | Luminosity | Snow |
|---|---|---|---|---|---|---|---|
| 1788094439 | 25.56° C | 99% | 1015.3 hPa | 0 mm | - | 52 W/m² | - |
| 1788094137 | 24.44° C | 99% | 1015.1 hPa | 0 mm | - | 53 W/m² | - |
| 1788093831 | 23.89° C | 99% | 1015.2 hPa | 0 mm | - | 44 W/m² | - |
| 1788093528 | 23.89° C | 99% | 1015.1 hPa | 0 mm | - | 36 W/m² | - |
| 1788093225 | 23.33° C | 99% | 1015.1 hPa | 0 mm | - | 25 W/m² | - |
| 1788092922 | 23.33° C | 99% | 1015 hPa | 0 mm | - | 22 W/m² | - |
| 1788092624 | 23.33° C | 99% | 1015 hPa | 0 mm | - | 15 W/m² | - |
| 1788092312 | 23.33° C | 99% | 1015 hPa | 0 mm | - | 12 W/m² | - |
| 1788092012 | 23.33° C | 99% | 1015.1 hPa | 0 mm | - | 9 W/m² | - |
| 1788091707 | 23.33° C | 99% | 1015 hPa | 0 mm | - | 6 W/m² | - |
| 1788091402 | 23.33° C | 99% | 1014.9 hPa | 0 mm | - | 3 W/m² | - |
| 1788091098 | 23.33° C | 99% | 1015 hPa | 0 mm | - | 1 W/m² | - |
| 1788090795 | 23.33° C | 99% | 1015 hPa | 0 mm | - | 0 W/m² | - |
| 1788090490 | 23.33° C | 99% | 1015 hPa | 0 mm | - | 0 W/m² | - |
| 1788090186 | 23.33° C | 99% | 1015 hPa | 0 mm | - | 0 W/m² | - |
| 1788089881 | 22.78° C | 99% | 1014.9 hPa | 0 mm | - | 0 W/m² | - |
| 1788089576 | 23.33° C | 99% | 1015 hPa | 0 mm | - | 0 W/m² | - |
| 1788089272 | 23.33° C | 99% | 1014.8 hPa | 0 mm | - | 0 W/m² | - |
| 1788088968 | 23.33° C | 99% | 1014.6 hPa | 0 mm | - | 0 W/m² | - |
| 1788088663 | 23.33° C | 99% | 1014.8 hPa | 0 mm | - | 0 W/m² | - |
| 1788088359 | 23.33° C | 99% | 1014.6 hPa | 0 mm | - | 0 W/m² | - |
| 1788088058 | 22.78° C | 99% | 1014.6 hPa | 0 mm | - | 0 W/m² | - |
| 1788087755 | 23.33° C | 99% | 1014.7 hPa | 0 mm | - | 0 W/m² | - |
| 1788087454 | 23.33° C | 99% | 1014.6 hPa | 0 mm | - | 0 W/m² | - |
| 1788087150 | 23.33° C | 99% | 1014.6 hPa | 0 mm | - | 0 W/m² | - |
* Rain latest hour (hover to see other rain measurements)
** Current wind speed in m/s (hover to see current wind gust speed)